Location: Most
(50.5133°N, 13.6207°E)
Time: 11:13:07
(UTC+01:00)

SEEDS - Pass Details

Date: 01 December 2021
Orbit: 584 x 600 km, 97.6° (Epoch: 22 January)

Event Time Altitude Azimuth Distance (km) Brightness Sun altitude
Rises 04:51:17 0° 13° (NNE) 2,826 ? -26.6°
Reaches altitude 10° 04:53:27 10° 13° (NNE) 1,919 ? -26.3°
Enters shadow 04:54:21 16° 13° (NNE) 1,547 ? -26.1°
